Regional Weather Roundup
Issued by NWS Charleston, WV

Home | Current Version | Previous Version | Text Only | Print | Product List | Glossary Off
Versions: 1 2 3 4 5 6 7 8 9 10 11 12 13 14 15 16 17 18 19 20 21 22 23 24 25 26 27 28 29 30 31 32 33 34 35 36 37 38 39 40 41 42 43 44 45 46 47 48

000
ASUS41 KRLX 221610
RWRRLX
West Virginia Regional Weather Roundup
National Weather Service Charleston WV
Issued by National Weather Service Pittsburgh PA
1200 PM EDT SUN OCT 22 2017

Note: "fair" indicates few or no clouds below 12,000 feet with no
significant weather and/or obstructions to visibility.

WVZ003-221700-
Northern Panhandle of West Virginia

CITY           SKY/WX    TMP DP  RH WIND       PRES   REMARKS
WHEELING       SUNNY     70  50  49 S12G23    30.29S
$$

WVZ009-221700-
Northwest West Virginia

CITY           SKY/WX    TMP DP  RH WIND       PRES   REMARKS
PARKERSBURG    MOSUNNY   71  52  50 SW8       30.31F
$$

WVZ006-221700-
Western West Virginia

CITY           SKY/WX    TMP DP  RH WIND       PRES   REMARKS
HUNTINGTON     SUNNY     72  51  47 E5        30.26F
$$

WVZ015-221700-
West Central West Virginia

CITY           SKY/WX    TMP DP  RH WIND       PRES   REMARKS
CHARLESTON     MOSUNNY   73  53  49 W3        30.28F
$$

WVZ031-221700-
North Central West Virginia

CITY           SKY/WX    TMP DP  RH WIND       PRES   REMARKS
CLARKSBURG     SUNNY     72  50  45 CALM      30.30F
MORGANTOWN     SUNNY     73  50  44 SW5       30.32S
$$

WVZ035-042-221700-
South Central West Virginia

CITY           SKY/WX    TMP DP  RH WIND       PRES   REMARKS
BECKLEY        SUNNY     66  48  52 SE9       30.34F
BLUEFIELD      SUNNY     65  45  48 VRB6G21   30.35F
$$

WVZ045-221700-
Greenbrier Valley of West Virginia

CITY           SKY/WX    TMP DP  RH WIND       PRES   REMARKS
LEWISBURG      SUNNY     68  51  55 SE3       30.38S
$$

WVZ047-221700-
Northern Mountains of West Virginia

CITY           SKY/WX    TMP DP  RH WIND       PRES   REMARKS
ELKINS         SUNNY     70  48  45 SW3       30.34F
$$

WVZ052-221700-
Eastern Panhandle of West Virginia

CITY           SKY/WX    TMP DP  RH WIND       PRES   REMARKS
MARTINSBURG    SUNNY     68  51  54 CALM      30.35F
PETERSBURG     SUNNY     65  52  64 CALM      30.34F
$$




USA.gov is the U.S. government's official web portal to all federal, state and local government web resources and services.